Location: Newark
(51.2625°N, 13.3939°E)
Time: 00:53:59
(UTC+00:00)

Transit 2A Rocket - Pass Details

Date: 19 January 2021
Orbit: 594 x 909 km, 66.7° (Epoch: 03 March)

Event Time Altitude Azimuth Distance (km) Brightness Sun altitude
Rises 16:16:05 0° 293° (WNW) 3,165 8.9 -6.6°
Reaches altitude 10° 16:19:49 10° 320° (NW) 2,167 7.6 -7.1°
Maximum altitude 16:22:11 13° 349° (N) 1,899 6.9 -7.4°
Drops below altitude 10° 16:24:30 10° 19° (NNE) 2,079 6.9 -7.8°
Enters shadow 16:26:08 - 35° (NE) 2,426 7.1 -8.0°
